JASON-3 (41240 NORAD) Tracking and Keplerian Element Data

This shows tracking and keplerian element data for the satellite.

Feedback or suggestion? Click here.




ElementValue
Catalog41240
NameJASON-3
Epoch Orbit13561
Epoch Day345.56005128
Epoch Year2018
RAAN75.6177
Inclination66.0425
Eccentricity0.0007489
Argument of Perigee268.7928
Mean Anonmoly91.2229
Mean Motion12.80931196
Decay Rate-3.4E-07
L11 41240U 16002A 18345.56005128 -.00000034 00000-0 11569-3 0 9991
L22 41240 66.0425 75.6177 0007489 268.7928 91.2229 12.80931196135610

Live tracking and technical data element details for JASON-3 (NORAD 41240). JASON-3 can be tracked NOW for your location showing map with azimuth and elevation plus other details from your city location.

Track the satellite on the map from your city or location and see movement details for azimuth, elevation, latitude, longitude, range, height, and movement on the map or in text.







IsCatalogInMostPopularTable: catalog: 41240, numindb: 94
Update: records affected: 1



GetName: 41240 JASON-3

Hit Count: updated at: Thu, 13 Dec 2018 03:43:35 GMT